ARIANE 5 DEB [SYLDA] (44037 NORAD) Tracking and Keplerian Element Data

This shows tracking and keplerian element data for the satellite.

Feedback or suggestion? Click here.




ElementValue
Catalog44037
NameARIANE 5 DEB [SYLDA]
Epoch Orbit65
Epoch Day65.62420279
Epoch Year2019
RAAN270.7535
Inclination2.6715
Eccentricity0.7284451
Argument of Perigee195.079
Mean Anonmoly116.6789
Mean Motion2.2735566
Decay Rate8.07E-06
L11 44037U 19007D 19065.62420279 .00000807 00000-0 24351-3 0 9991
L22 44037 2.6715 270.7535 7284451 195.0790 116.6789 2.27355660 657

Live tracking and technical data element details for ARIANE 5 DEB [SYLDA] (NORAD 44037). ARIANE 5 DEB [SYLDA] can be tracked NOW for your location showing map with azimuth and elevation plus other details from your city location.

Track the satellite on the map from your city or location and see movement details for azimuth, elevation, latitude, longitude, range, height, and movement on the map or in text.







IsCatalogInMostPopularTable: catalog: 44037, numindb: 93
Update: records affected: 1



GetName: 44037 ARIANE 5 DEB [SYLDA]

Hit Count: updated at: Sun, 21 Jul 2019 14:43:47 GMT